RYR2KD LEZL-LPPR

Flight info

Callsign RYR2KD
Flight time 0h 52m
Altitude 34000
Route SANTA M744 LASIB DCT ABLEG
Aircraft B38M/M-SDE1FGHILORVWXY/HB1

Departure

Time 2026-04-22 12:43
Airport Seville Airport (LEZL)

Arrival

Time 2026-04-22 13:35
Airport Francisco de Sá Carneiro Airport (LPPR)
Time Latitude Longitude Altitude Speed Heading
2026-04-22 12:00 37.42153 -5.90027 96 ft 0 kts 315°
2026-04-22 12:34 37.42142 -5.90012 98 ft 4 kts 310°
2026-04-22 12:34 37.42126 -5.89985 96 ft 4 kts 296°
2026-04-22 12:34 37.42119 -5.89954 96 ft 4 kts 268°
2026-04-22 12:35 37.42125 -5.89931 96 ft 1 kts 225°
2026-04-22 12:35 37.42128 -5.89927 96 ft 0 kts 225°
2026-04-22 12:38 37.42126 -5.89930 96 ft 1 kts 225°
2026-04-22 12:39 37.42112 -5.89948 97 ft 5 kts 225°
2026-04-22 12:39 37.42056 -5.90052 98 ft 10 kts 258°
2026-04-22 12:39 37.42020 -5.90094 98 ft 7 kts 185°
2026-04-22 12:40 37.41983 -5.90113 100 ft 5 kts 240°
2026-04-22 12:40 37.41980 -5.90180 98 ft 12 kts 270°
2026-04-22 12:40 37.41980 -5.90310 97 ft 17 kts 270°
2026-04-22 12:40 37.41979 -5.90470 96 ft 20 kts 270°
2026-04-22 12:41 37.41978 -5.90658 95 ft 23 kts 269°
2026-04-22 12:41 37.41976 -5.90871 93 ft 26 kts 269°
2026-04-22 12:41 37.41974 -5.91110 92 ft 29 kts 269°
2026-04-22 12:41 37.41934 -5.91302 93 ft 18 kts 206°
2026-04-22 12:42 37.41833 -5.91232 93 ft 18 kts 124°
2026-04-22 12:42 37.41788 -5.91082 96 ft 19 kts 89°
2026-04-22 12:42 37.41789 -5.90762 96 ft 71 kts 89°
2026-04-22 12:42 37.41793 -5.89820 101 ft 141 kts 90°
2026-04-22 12:43 37.41786 -5.88380 318 ft 179 kts 95°
2026-04-22 12:43 37.41716 -5.86755 1023 ft 187 kts 92°
2026-04-22 12:43 37.41683 -5.85050 1699 ft 203 kts 92°
2026-04-22 12:43 37.41650 -5.83224 2287 ft 218 kts 91°
2026-04-22 12:44 37.41822 -5.81267 2659 ft 241 kts 71°
2026-04-22 12:44 37.42833 -5.79600 3330 ft 242 kts 36°
2026-04-22 12:44 37.44424 -5.78891 3871 ft 249 kts 359°
2026-04-22 12:44 37.46064 -5.79506 4465 ft 246 kts 327°
2026-04-22 12:45 37.47251 -5.81022 4464 ft 248 kts 295°
2026-04-22 12:45 37.47710 -5.83079 5208 ft 244 kts 279°
2026-04-22 12:45 37.48347 -5.85077 5897 ft 251 kts 301°
2026-04-22 12:45 37.49612 -5.86621 6641 ft 260 kts 321°
2026-04-22 12:46 37.51219 -5.87826 7036 ft 277 kts 324°
2026-04-22 12:46 37.52902 -5.89082 7455 ft 289 kts 324°
2026-04-22 12:46 37.54628 -5.90375 8196 ft 290 kts 324°
2026-04-22 12:46 37.56374 -5.91690 8891 ft 294 kts 323°
2026-04-22 12:47 37.58133 -5.93017 9683 ft 295 kts 324°
2026-04-22 12:47 37.59910 -5.94359 10349 ft 303 kts 324°
2026-04-22 12:47 37.61770 -5.95774 10672 ft 322 kts 324°
2026-04-22 12:47 37.63730 -5.97268 11053 ft 336 kts 324°
2026-04-22 12:48 37.65750 -5.98805 11684 ft 341 kts 325°
2026-04-22 12:48 37.67792 -6.00353 12423 ft 345 kts 325°
2026-04-22 12:48 37.69871 -6.01930 13117 ft 350 kts 325°
2026-04-22 12:48 37.71973 -6.03524 13811 ft 354 kts 325°
2026-04-22 12:49 37.74098 -6.05139 14448 ft 357 kts 325°
2026-04-22 12:49 37.76206 -6.06741 15138 ft 360 kts 324°
2026-04-22 12:49 37.78358 -6.08377 15908 ft 361 kts 324°
2026-04-22 12:49 37.80514 -6.10019 16644 ft 363 kts 324°
2026-04-22 12:50 37.82686 -6.11672 17368 ft 365 kts 324°
2026-04-22 12:50 37.84870 -6.13336 18026 ft 368 kts 324°
2026-04-22 12:50 37.87077 -6.15018 18624 ft 370 kts 324°
2026-04-22 12:50 37.89288 -6.16705 19159 ft 373 kts 324°
2026-04-22 12:51 37.91517 -6.18407 19677 ft 374 kts 324°
2026-04-22 12:51 37.93755 -6.20116 20176 ft 376 kts 324°
2026-04-22 12:51 37.95242 -6.21253 20490 ft 378 kts 324°
2026-04-22 12:51 37.97506 -6.22984 20957 ft 380 kts 324°
2026-04-22 12:52 37.99770 -6.24718 21400 ft 382 kts 324°
2026-04-22 12:52 38.02049 -6.26462 21842 ft 384 kts 324°
2026-04-22 12:52 38.05087 -6.28792 22467 ft 385 kts 324°
2026-04-22 12:52 38.06639 -6.29982 22766 ft 386 kts 324°
2026-04-22 12:53 38.08916 -6.31730 23141 ft 388 kts 324°
2026-04-22 12:53 38.11234 -6.33512 23531 ft 390 kts 324°
2026-04-22 12:53 38.13559 -6.35298 23859 ft 391 kts 324°
2026-04-22 12:53 38.15895 -6.37096 24165 ft 393 kts 324°
2026-04-22 12:54 38.18238 -6.38900 24450 ft 395 kts 324°
2026-04-22 12:54 38.20589 -6.40710 24735 ft 396 kts 324°
2026-04-22 12:54 38.22955 -6.42535 25019 ft 398 kts 324°
2026-04-22 12:54 38.25327 -6.44365 25294 ft 399 kts 324°
2026-04-22 12:55 38.27704 -6.46200 25559 ft 400 kts 324°
2026-04-22 12:55 38.30093 -6.48046 25770 ft 404 kts 324°
2026-04-22 12:55 38.32505 -6.49912 26047 ft 406 kts 324°
2026-04-22 12:55 38.34921 -6.51781 26334 ft 407 kts 324°
2026-04-22 12:56 38.37314 -6.53635 26605 ft 409 kts 324°
2026-04-22 12:56 38.39759 -6.55530 26888 ft 410 kts 324°
2026-04-22 12:56 38.42203 -6.57426 27131 ft 412 kts 324°
2026-04-22 12:56 38.44655 -6.59330 27392 ft 413 kts 324°
2026-04-22 12:57 38.47118 -6.61244 27651 ft 415 kts 324°
2026-04-22 12:57 38.49585 -6.63163 27866 ft 416 kts 324°
2026-04-22 12:57 38.52067 -6.65095 28103 ft 417 kts 324°
2026-04-22 12:57 38.54550 -6.67029 28286 ft 419 kts 324°
2026-04-22 12:58 38.57043 -6.68972 28497 ft 420 kts 324°
2026-04-22 12:58 38.59541 -6.70921 28686 ft 421 kts 324°
2026-04-22 12:58 38.62046 -6.72877 28871 ft 422 kts 324°
2026-04-22 12:58 38.64555 -6.74838 29045 ft 424 kts 324°
2026-04-22 12:59 38.67074 -6.76808 29220 ft 425 kts 324°
2026-04-22 12:59 38.69600 -6.78785 29400 ft 426 kts 324°
2026-04-22 12:59 38.72133 -6.80770 29600 ft 426 kts 324°
2026-04-22 12:59 38.74629 -6.82727 29754 ft 427 kts 324°
2026-04-22 13:00 38.77164 -6.84716 29888 ft 428 kts 324°
2026-04-22 13:00 38.82277 -6.88733 30088 ft 432 kts 324°
2026-04-22 13:00 38.84846 -6.90754 30198 ft 433 kts 324°
2026-04-22 13:01 38.87418 -6.92780 30307 ft 434 kts 324°
2026-04-22 13:01 38.89994 -6.94810 30410 ft 434 kts 324°
2026-04-22 13:01 38.92573 -6.96843 30520 ft 435 kts 324°
2026-04-22 13:02 38.97742 -7.00926 30718 ft 437 kts 324°
2026-04-22 13:02 39.02926 -7.05027 30899 ft 438 kts 324°
2026-04-22 13:02 39.05526 -7.07087 31001 ft 439 kts 324°
2026-04-22 13:03 39.08129 -7.09150 31104 ft 439 kts 324°
2026-04-22 13:03 39.13301 -7.13257 31317 ft 441 kts 324°
2026-04-22 13:03 39.15917 -7.15336 31448 ft 441 kts 324°
2026-04-22 13:04 39.18536 -7.17420 31564 ft 442 kts 324°
2026-04-22 13:04 39.21150 -7.19501 31683 ft 443 kts 324°
2026-04-22 13:04 39.23778 -7.21597 31808 ft 444 kts 324°
2026-04-22 13:05 39.29056 -7.25810 31987 ft 448 kts 324°
2026-04-22 13:05 39.31704 -7.27926 32160 ft 449 kts 324°
2026-04-22 13:05 39.34362 -7.30052 32277 ft 450 kts 324°
2026-04-22 13:05 39.37027 -7.32185 32483 ft 450 kts 324°
2026-04-22 13:06 39.39683 -7.34313 32710 ft 450 kts 324°
2026-04-22 13:06 39.42344 -7.36446 32950 ft 449 kts 324°
2026-04-22 13:06 39.45001 -7.38579 33238 ft 449 kts 324°
2026-04-22 13:06 39.47649 -7.40707 33549 ft 448 kts 324°
2026-04-22 13:07 39.50298 -7.42836 33869 ft 448 kts 324°
2026-04-22 13:07 39.52948 -7.44969 34055 ft 449 kts 324°
2026-04-22 13:07 39.55593 -7.47100 34040 ft 447 kts 324°
2026-04-22 13:08 39.60830 -7.51325 34033 ft 446 kts 324°
2026-04-22 13:08 39.66107 -7.55592 34035 ft 447 kts 324°
2026-04-22 13:09 39.71390 -7.59869 34038 ft 447 kts 324°
2026-04-22 13:09 39.76684 -7.64165 34029 ft 449 kts 324°
2026-04-22 13:10 39.81987 -7.68475 34034 ft 450 kts 323°
2026-04-22 13:10 39.87256 -7.72767 34019 ft 450 kts 323°
2026-04-22 13:11 39.92550 -7.77082 33756 ft 444 kts 324°
2026-04-22 13:11 39.95336 -7.78908 32800 ft 454 kts 335°
2026-04-22 13:11 39.98287 -7.80419 32018 ft 452 kts 328°
2026-04-22 13:11 40.00962 -7.82460 31672 ft 440 kts 325°
2026-04-22 13:12 40.03595 -7.84399 31459 ft 429 kts 326°
2026-04-22 13:12 40.06179 -7.86282 31115 ft 422 kts 326°
2026-04-22 13:12 40.08749 -7.88147 31007 ft 424 kts 326°
2026-04-22 13:12 40.11349 -7.90034 30900 ft 430 kts 326°
2026-04-22 13:13 40.13951 -7.91922 30516 ft 426 kts 326°
2026-04-22 13:13 40.16628 -7.93656 29817 ft 433 kts 335°
2026-04-22 13:13 40.19474 -7.94844 29570 ft 423 kts 335°
2026-04-22 13:13 40.22203 -7.96123 29407 ft 410 kts 335°
2026-04-22 13:14 40.24845 -7.97393 29254 ft 400 kts 334°
2026-04-22 13:14 40.27458 -7.98671 29084 ft 412 kts 334°
2026-04-22 13:14 40.30171 -8.00005 28887 ft 420 kts 334°
2026-04-22 13:14 40.32916 -8.01360 28617 ft 422 kts 334°
2026-04-22 13:15 40.35653 -8.02713 28239 ft 419 kts 334°
2026-04-22 13:15 40.38383 -8.04064 27483 ft 422 kts 334°
2026-04-22 13:15 40.41155 -8.05436 26544 ft 429 kts 334°
2026-04-22 13:15 40.43971 -8.06832 25645 ft 435 kts 334°
2026-04-22 13:16 40.46813 -8.08242 24768 ft 439 kts 334°
2026-04-22 13:16 40.49684 -8.09668 23922 ft 443 kts 334°
2026-04-22 13:16 40.52574 -8.11103 22994 ft 445 kts 335°
2026-04-22 13:16 40.55474 -8.12546 22029 ft 447 kts 335°
2026-04-22 13:17 40.58391 -8.13999 21101 ft 448 kts 335°
2026-04-22 13:17 40.61311 -8.15454 20206 ft 449 kts 336°
2026-04-22 13:17 40.64213 -8.16901 19563 ft 437 kts 336°
2026-04-22 13:17 40.67032 -8.18309 19051 ft 430 kts 336°
2026-04-22 13:18 40.69810 -8.19698 18585 ft 424 kts 336°
2026-04-22 13:18 40.72552 -8.21070 18092 ft 419 kts 336°
2026-04-22 13:18 40.75255 -8.22423 17599 ft 413 kts 336°
2026-04-22 13:18 40.77888 -8.23743 17153 ft 408 kts 336°
2026-04-22 13:19 40.80523 -8.25064 16717 ft 402 kts 336°
2026-04-22 13:19 40.83124 -8.26370 16289 ft 397 kts 336°
2026-04-22 13:19 40.85688 -8.27658 15857 ft 392 kts 336°
2026-04-22 13:19 40.88230 -8.28936 15446 ft 388 kts 337°
2026-04-22 13:20 40.90749 -8.30203 15014 ft 385 kts 337°
2026-04-22 13:20 40.93240 -8.31458 14571 ft 382 kts 337°
2026-04-22 13:20 40.95713 -8.32705 14159 ft 379 kts 337°
2026-04-22 13:20 40.98168 -8.33943 13736 ft 376 kts 337°
2026-04-22 13:21 41.00600 -8.35171 13299 ft 373 kts 337°
2026-04-22 13:21 41.03012 -8.36390 12865 ft 369 kts 337°
2026-04-22 13:21 41.05401 -8.37599 12456 ft 365 kts 336°
2026-04-22 13:21 41.07767 -8.38796 12060 ft 361 kts 336°
2026-04-22 13:22 41.10107 -8.39981 11640 ft 358 kts 336°
2026-04-22 13:22 41.12423 -8.41154 11244 ft 354 kts 336°
2026-04-22 13:22 41.14714 -8.42317 10848 ft 351 kts 336°
2026-04-22 13:22 41.16979 -8.43466 10585 ft 344 kts 336°
2026-04-22 13:23 41.19151 -8.44569 10436 ft 334 kts 336°
2026-04-22 13:23 41.21298 -8.45659 10264 ft 325 kts 336°
2026-04-22 13:23 41.23384 -8.46721 10118 ft 316 kts 336°
2026-04-22 13:23 41.25413 -8.47753 9914 ft 309 kts 336°
2026-04-22 13:24 41.27418 -8.48775 9566 ft 308 kts 336°
2026-04-22 13:24 41.29421 -8.49795 9184 ft 307 kts 336°
2026-04-22 13:24 41.31412 -8.50811 8842 ft 305 kts 336°
2026-04-22 13:24 41.33391 -8.51819 8522 ft 303 kts 336°
2026-04-22 13:25 41.35353 -8.52822 8198 ft 301 kts 336°
2026-04-22 13:25 41.37300 -8.53819 7881 ft 299 kts 337°
2026-04-22 13:25 41.39237 -8.54811 7552 ft 298 kts 337°
2026-04-22 13:25 41.41172 -8.55800 7234 ft 297 kts 337°
2026-04-22 13:26 41.43098 -8.56783 6911 ft 294 kts 337°
2026-04-22 13:26 41.44953 -8.57732 6565 ft 285 kts 338°
2026-04-22 13:26 41.46772 -8.58664 6221 ft 274 kts 338°
2026-04-22 13:26 41.48515 -8.59559 5966 ft 264 kts 338°
2026-04-22 13:27 41.50217 -8.60433 5681 ft 258 kts 338°
2026-04-22 13:27 41.51735 -8.61560 5376 ft 245 kts 316°
2026-04-22 13:27 41.52684 -8.63384 4951 ft 237 kts 289°
2026-04-22 13:27 41.52936 -8.65500 4668 ft 226 kts 264°
2026-04-22 13:28 41.52774 -8.67526 4554 ft 214 kts 259°
2026-04-22 13:28 41.52563 -8.69459 4444 ft 207 kts 258°
2026-04-22 13:28 41.52338 -8.71313 4293 ft 199 kts 257°
2026-04-22 13:28 41.51963 -8.73021 4174 ft 188 kts 233°
2026-04-22 13:29 41.51033 -8.74106 4014 ft 179 kts 200°
2026-04-22 13:29 41.49828 -8.74359 4047 ft 175 kts 180°
2026-04-22 13:29 41.48608 -8.74260 4099 ft 177 kts 173°
2026-04-22 13:29 41.47379 -8.74029 3924 ft 178 kts 171°
2026-04-22 13:30 41.46156 -8.73744 3738 ft 177 kts 170°
2026-04-22 13:30 41.44949 -8.73437 3553 ft 176 kts 169°
2026-04-22 13:30 41.43748 -8.73119 3371 ft 176 kts 169°
2026-04-22 13:30 41.42547 -8.72804 3191 ft 175 kts 169°
2026-04-22 13:31 41.41368 -8.72480 2980 ft 169 kts 170°
2026-04-22 13:31 41.40232 -8.72173 2783 ft 165 kts 169°
2026-04-22 13:31 41.39111 -8.71876 2586 ft 163 kts 169°
2026-04-22 13:31 41.37979 -8.71581 2311 ft 168 kts 171°
2026-04-22 13:32 41.36819 -8.71285 2112 ft 170 kts 170°
2026-04-22 13:32 41.35710 -8.70999 1969 ft 153 kts 170°
2026-04-22 13:32 41.34706 -8.70736 1788 ft 138 kts 169°
2026-04-22 13:32 41.33782 -8.70486 1613 ft 133 kts 170°
2026-04-22 13:33 41.32866 -8.70244 1388 ft 134 kts 171°
2026-04-22 13:33 41.31960 -8.70015 1287 ft 135 kts 171°
2026-04-22 13:33 41.31027 -8.69749 1103 ft 139 kts 169°
2026-04-22 13:33 41.30077 -8.69498 959 ft 139 kts 172°
2026-04-22 13:34 41.29119 -8.69244 786 ft 142 kts 170°
2026-04-22 13:34 41.28152 -8.68994 616 ft 142 kts 173°
2026-04-22 13:34 41.27180 -8.68760 454 ft 142 kts 168°
2026-04-22 13:34 41.26217 -8.68492 299 ft 140 kts 172°
2026-04-22 13:35 41.25307 -8.68254 238 ft 118 kts 169°
2026-04-22 13:35 41.24725 -8.68101 240 ft 63 kts 169°
2026-04-22 13:35 41.24294 -8.67988 239 ft 62 kts 169°
2026-04-22 13:35 41.24000 -8.67910 238 ft 23 kts 168°
2026-04-22 13:36 41.23893 -8.67840 237 ft 7 kts 103°
2026-04-22 13:36 41.23897 -8.67770 237 ft 9 kts 77°
2026-04-22 13:36 41.23912 -8.67682 237 ft 11 kts 78°
2026-04-22 13:36 41.23920 -8.67627 237 ft 1 kts 79°
2026-04-22 13:37 41.23924 -8.67602 237 ft 4 kts 79°
2026-04-22 13:37 41.23923 -8.67550 237 ft 7 kts 107°
2026-04-22 13:37 41.23893 -8.67491 238 ft 8 kts 163°
2026-04-22 13:37 41.23827 -8.67475 237 ft 11 kts 171°
2026-04-22 13:38 41.23755 -8.67447 237 ft 1 kts 138°
2026-04-22 13:38 41.23790 -8.67368 237 ft 5 kts 49°
2026-04-22 13:38 41.23791 -8.67366 237 ft 0 kts 48°